Regional Weather Roundup
Issued by NWS Sioux Falls, SD

Home | Current Version | Previous Version | Graphics & Text | Print | Product List | Glossary Off
Versions: 1 2 3 4 5 6 7 8 9 10 11 12 13 14 15 16 17 18 19 20 21 22 23 24 25 26 27 28 29 30 31 32 33 34 35 36 37 38 39 40 41 42 43 44 45 46 47 48 49 50

000
ASUS43 KFSD 010010
RWRFSD

WEATHER ROUNDUP FOR SE SOUTH DAKOTA/SW MINNESOTA/NW IOWA
NATIONAL WEATHER SERVICE SIOUX FALLS SD
600 PM CST SAT JAN 31 2015

NOTE: "FAIR" INDICATES FEW OR NO CLOUDS BELOW 12,000 FEET WITH NO
SIGNIFICANT WEATHER AND OR OBSTRUCTIONS TO VISIBILITY.


SDZ038>040-050-052>070-010100-
SOUTHEAST SOUTH DAKOTA

CITY           SKY/WX    TMP DP  RH WIND       PRES   REMARKS
CHAMBERLAIN    CLOUDY    19  17  90 NE13G18   30.08R WCI   7
6HR MIN TEMP:  19; 6HR MAX TEMP:  25;

HURON          CLOUDY    20  16  84 NE16      30.13R WCI   6
6HR MIN TEMP:  20; 6HR MAX TEMP:  22;

MADISON        CLOUDY    21  21 100 NE20      30.05S FOG     WCI   6
MITCHELL       FRZ RAIN  24  22  91 NE18      30.09R FOG     WCI  10
6HR MIN TEMP:  24; 6HR MAX TEMP:  26; 6HR PCP: TRACE;

SIOUX FALLS    LGT SNOW  26  23  88 NE17      30.05R VSB 3/4 WCI  13
6HR MIN TEMP:  26; 6HR MAX TEMP:  37; 6HR PCP:  0.07;

WINNER         LGT SNOW  21  18  88 NE16      30.05R FOG     WCI   7
YANKTON        CLOUDY    28  25  86 NE14      30.02R WCI  17
$$

MNZ071-072-080-081-089-090-097-098-010100-
SOUTHWEST MINNESOTA

CITY           SKY/WX    TMP DP  RH WIND       PRES   REMARKS
FAIRMONT       CLOUDY    28  25  86 NE12      30.08S WCI  18
JACKSON        LGT SNOW  28  27  93 NE14      30.07S WCI  17
LUVERNE        LGT SNOW  28  27  93 NE15      30.05S WCI  17
MARSHALL       CLOUDY    25  19  80 NE14G21   30.14S WCI  13
6HR MIN TEMP:  25; 6HR MAX TEMP:  25;

MONTEVIDEO     CLOUDY    25  19  80 E5        30.18F WCI  19
PIPESTONE      LGT SNOW  25  23  93 E8        30.05S WCI  16
REDWOOD FALLS  CLOUDY    27  21  78 NE12G17   30.14F WCI  17
TRACY          CLOUDY    26  24  93 NE8       30.12S WCI  17
WINDOM         LGT SNOW  27  25  93 NE13G20   30.09S WCI  16
WORTHINGTON    CLOUDY    27  23  86 NE16      30.06S WCI  14
$$

IAZ001>003-012>014-020>022-031-032-NEZ013-014-SDZ071-010100-
NORTHWEST IOWA

CITY           SKY/WX    TMP DP  RH WIND       PRES   REMARKS
CHEROKEE       LGT SNOW  28  28 100 NE8       30.02S WCI  20
DENISON        LGT SNOW  32  32 100 E7        29.97F WCI  26
ESTHERVILLE    LGT SNOW  27  26  96 NE16      30.05F VSB 3/4 WCI  15
LE MARS        LGT SNOW  28  28 100 E12G21    30.01S WCI  18
ORANGE CITY    LGT SNOW  28  27  93 E10G16    30.00F WCI  19
SHELDON        LGT SNOW  28  28 100 E23       30.01F WCI  14
SIOUX CITY     LGT SNOW  33  32  96 E7        29.99F VSB 3/4 WCI  27
6HR MIN TEMP:  33; 6HR MAX TEMP:  38; 6HR PCP:  0.13;

SPENCER        LGT SNOW  29  27  92 NE13      30.04S FOG     WCI  19
6HR MIN TEMP:  28; 6HR MAX TEMP:  29; 6HR PCP: TRACE;

STORM LAKE     LGT SNOW  28  28 100 NE13      30.01F VSB 3/4 WCI  18
$$

ABBREVIATIONS USED IN REMARKS
   TC - TEMPERATURE IN CELSIUS
  WCI - WIND CHILL INDEX
   HX - HEAT INDEX
  VSB - VISIBILITY



USA.gov is the U.S. government's official web portal to all federal, state and local government web resources and services.